Location: Eexterzandvoort
(53.0303°N, 6.7884°E)
Time: 10:04:44
(UTC+00:00)

Meteor 1-27 Rocket - Pass Details

Date: 19 May 2025
Orbit: 830 x 908 km, 81.3° (Epoch: 23 June)

Event Time Altitude Azimuth Distance (km) Brightness Sun altitude
Exits shadow 22:30:55 23° 186° (S) 1,730 4.8 -15.9°
Maximum altitude 22:34:31 82° 102° (ESE) 857 3.7 -16.0°
Drops below altitude 10° 22:40:05 10° 15° (NNE) 2,456 7.1 -16.2°
Sets 22:42:29 0° 14° (NNE) 3,390 8.0 -16.3°
